This demonstration page uses our WeatherBlox Daily Observations layout. Learn more.

39.92423, -83.80882

Hourly Observations for August 26, 2017

Temp ( °F °C ) Dew Point ( °F °C ) Humidity (%) Winds ( mph kmh ) Pressure ( in mb ) Visibility ( mi km ) Precip ( " mm )
12:56 am 00:56 Clear 55 12.8 50 10 83 83 ENE 8 13 30.27 1025 10 16.0934 0 0
1:56 am 01:56 Clear 53 11.7 49 9.4 86 86 ENE 7 11 30.27 1025 10 16.0934 0 0
2:56 am 02:56 Clear 52 11.1 49 9.4 89 89 NE 5 7 30.27 1025 10 16.0934 0 0
3:56 am 03:56 Clear 52 11.1 48 8.9 86 86 ENE 5 7 30.27 1025 10 16.0934 0 0
4:56 am 04:56 Clear 50 10 47 8.3 89 89 ENE 5 7 30.27 1025 10 16.0934 0 0
5:56 am 05:56 Clear 51 10.6 47 8.3 86 86 E 3 6 30.28 1025 10 16.0934 0 0
6:56 am 06:56 Clear 50 10 47 8.3 89 89 ENE 5 7 30.29 1026 10 16.0934 0 0
7:56 am 07:56 Sunny 51 10.6 48 8.9 89 89 ENE 6 9 30.3 1026 10 16.0934 0 0
8:56 am 08:56 Sunny 58 14.4 52 11.1 81 81 E 6 9 30.31 1026 10 16.0934 0 0
9:56 am 09:56 Sunny 64 17.8 53 11.7 68 68 E 6 9 30.3 1026 10 16.0934 0 0
10:56 am 10:56 Sunny 68 20 54 12.2 61 61 E 8 13 30.31 1026 10 16.0934 0 0
11:56 am 11:56 Mostly Sunny 70 21.1 54 12.2 57 57 E 9 15 30.29 1026 10 16.0934 0 0
12:56 pm 12:56 Sunny 71 21.7 52 11.1 51 51 NE 6 9 30.28 1025 10 16.0934 0 0
1:56 pm 13:56 Sunny 72 22.2 52 11.1 50 50 NE 9 15 30.27 1025 10 16.0934 0 0
2:56 pm 14:56 Sunny 73 22.8 53 11.7 50 50 E 9 15 30.25 1025 10 16.0934 0 0
3:56 pm 15:56 Sunny 73 22.8 51 10.6 46 46 NNE 8 13 30.24 1024 10 16.0934 0 0
4:56 pm 16:56 Sunny 73 22.8 52 11.1 48 48 E 9 15 30.23 1024 10 16.0934 0 0
5:56 pm 17:56 Sunny 72 22.2 49 9.4 44 44 NE 6 9 30.24 1024 10 16.0934 0 0
6:56 pm 18:56 Sunny 71 21.7 53 11.7 53 53 ENE 6 9 30.23 1024 10 16.0934 0 0
7:56 pm 19:56 Sunny 66 18.9 54 12.2 65 65 NE 6 9 30.23 1024 10 16.0934 0 0
8:56 pm 20:56 Clear 63 17.2 53 11.7 70 70 NE 5 7 30.23 1024 10 16.0934 0 0
9:56 pm 21:56 Clear 60 15.6 52 11.1 75 75 NE 10 17 30.24 1024 10 16.0934 0 0
10:56 pm 22:56 Clear 57 13.9 51 10.6 81 81 NE 6 9 30.24 1024 10 16.0934 0 0
11:56 pm 23:56 Clear 56 13.3 50 10 81 81 ENE 8 13 30.23 1024 10 16.0934 0 0

Powered by AerisWeather